Content
SEND FEEDBACK

Daily
Averages
Monthly
Summary
United States of America

MERIZO, GUAM


Home > North America > United States > Guam
Elevation: 10 feet     Latitude: 13 14N     Longitude: 144 39E

WEATHER
 
SELECT A DAY
Number of Records: 342,273;   Date Range: 1/1/95 - 8/30/14
 
SHARE

PRINT THIS DATA

[ ← Previous Day ]
WEATHER ALMANAC - SEPTEMBER 8, 2013
[ Next Day → ]
[ °C ]   °F
Weather ElementAverageHighLow
Temperature79.4 °F86 °F (11:58 am)75.2 °F (3:06 am)
Dewpoint75.5 °F78.8 °F (11:09 pm)73.4 °F (2:53 am)
Humidity88.2 %100 % (4:59 am)72 % (12:58 pm)
Barometer29.90 in29.92 in (9:53 pm)29.84 in (4:58 pm)
Wind Speed5.9 mph18.4 mph (2:53 am)
Wind Gust23 mph (2:53 am)
Weather ElementAverage
Visibility8.9 mi
Wind DirectionENE (71.7 °)

Weather ElementTotal
Precipitation0.69 in
Cooling Degree Days15.6 (Base 65)
Growing Degree Days30.6 (Base 50)
Averaged from 70 records on September 8, 2013
WEATHER CONDITIONS BREAKOUT
WIND DIRECTION BREAKOUT
WEATHER BY HOUR - SEPTEMBER 8, 2013
[ °C ]   °F
Local TimeTemperatureDewpointHumidityBarometerVisibilityWind DirectionWind SpeedGust SpeedPrecipitationEventsConditions
12:39 AM80.6 °F77.0 °F89 %29.91 in10.0 miVariable1.2 mphRainLight Rain
12:49 AM78.8 °F75.2 °F89 %29.91 in2.5 miSouth (180°)5.8 mphRainLight Rain
12:54 AM78.8 °F75.2 °F89 %29.91 in1.8 miVariable2.3 mphRainHeavy Rain
12:58 AM78.8 °F75.2 °F89 %29.91 in1.5 miWNW (290°)3.5 mph0.19 inRainHeavy Rain
1:03 AM78.8 °F75.2 °F89 %29.91 in1.8 miNW (310°)4.6 mphRainLight Rain
1:08 AM78.8 °F77.0 °F94 %29.91 in9.0 miNE (50°)3.5 mphRainLight Rain
1:13 AM78.8 °F77.0 °F94 %29.91 in9.0 miNorth (10°)3.5 mphRainLight Rain
1:15 AM78.8 °F77.0 °F94 %29.91 in10.0 miNNE (20°)2.3 mphMostly Cloudy
1:20 AM78.8 °F77.0 °F94 %29.90 in10.0 miCalmMostly Cloudy
1:40 AM78.8 °F77.0 °F94 %29.90 in10.0 miWest (260°)5.8 mphMostly Cloudy
1:45 AM78.8 °F75.2 °F89 %29.90 in10.0 miWest (260°)8.1 mphMostly Cloudy
1:55 AM77.0 °F75.2 °F94 %29.89 in10.0 miWest (280°)5.8 mphOvercast
1:58 AM77.0 °F75.2 °F94 %29.89 in10.0 miWest (280°)5.8 mph0.01 inOvercast
2:18 AM77.0 °F75.2 °F94 %29.90 in10.0 miWNW (300°)5.8 mphMostly Cloudy
2:28 AM77.0 °F75.2 °F94 %29.90 in10.0 miWest (270°)3.5 mphMostly Cloudy
2:38 AM77.0 °F75.2 °F94 %29.89 in10.0 miWest (260°)4.6 mphScattered Clouds
2:53 AM77.0 °F73.4 °F89 %29.90 in10.0 miNE (50°)18.4 mph23.0 mphMostly Cloudy
2:55 AM77.0 °F73.4 °F89 %29.91 in10.0 miNE (50°)15.0 mph23.0 mphRainLight Rain
2:58 AM77.0 °F73.4 °F89 %29.90 in10.0 miNE (40°)15.0 mph23.0 mph0.01 inRainRain
3:03 AM77.0 °F73.4 °F89 %29.91 in4.0 miNE (40°)15.0 mph23.0 mphRainHeavy Rain
3:06 AM75.2 °F73.4 °F94 %29.90 in3.0 miNNE (20°)15.0 mphRainHeavy Rain
3:26 AM75.2 °F73.4 °F94 %29.89 in2.5 miNE (40°)6.9 mphRainHeavy Rain
3:31 AM75.2 °F73.4 °F94 %29.89 in1.2 miNNE (20°)1.2 mphRainHeavy Rain
3:36 AM75.2 °F73.4 °F94 %29.88 in1.5 miCalmRainLight Rain
3:41 AM75.2 °F73.4 °F94 %29.88 in4.0 miENE (60°)1.2 mphRainLight Rain
3:51 AM75.2 °F73.4 °F94 %29.88 in10.0 miSSE (150°)4.6 mphLight Drizzle
3:58 AM75.9 °F74.1 °F94 %29.88 in10.0 miCalm0.45 inRainLight Rain
4:34 AM77.0 °F75.2 °F94 %29.89 in10.0 miNW (320°)2.3 mphPartly Cloudy
4:42 AM77.0 °F75.2 °F94 %29.90 in10.0 miCalmThunderstormThunderstorm
4:47 AM75.2 °F73.4 °F94 %29.90 in10.0 miCalmMostly Cloudy
4:49 AM77.0 °F73.4 °F89 %29.90 in10.0 miCalmMostly Cloudy
4:50 AM77.0 °F73.4 °F89 %29.90 in10.0 miCalmMostly Cloudy
4:51 AM77.0 °F73.4 °F89 %29.90 in10.0 miCalmMostly Cloudy
4:52 AM77.0 °F73.4 °F89 %29.90 in10.0 miCalmMostly Cloudy
4:53 AM77.0 °F73.4 °F89 %29.91 in10.0 miCalmMostly Cloudy
4:54 AM77.0 °F73.4 °F89 %29.91 in10.0 miCalmMostly Cloudy
4:58 AM76.3 °F74.1 °F93 %29.91 in10.0 miCalm0.01 inScattered Clouds
4:59 AM75.2 °F75.2 °F100 %29.91 in10.0 miCalmScattered Clouds
5:58 AM76.5 °F74.7 °F94 %29.90 in10.0 miNorth (10°)4.6 mphPartly Cloudy
6:18 AM77.0 °F75.2 °F94 %29.90 in10.0 miNNE (30°)4.6 mphMostly Cloudy
6:23 AM77.0 °F75.2 °F94 %29.89 in10.0 miNorth (10°)5.8 mphScattered Clouds
6:58 AM78.6 °F76.1 °F92 %29.90 in10.0 miENE (70°)3.5 mphPartly Cloudy
7:58 AM81.7 °F76.5 °F84 %29.89 in10.0 miESE (120°)5.8 mphClear
8:58 AM83.1 °F76.8 °F81 %29.89 in10.0 miESE (110°)8.1 mphClear
9:58 AM84.4 °F76.3 °F77 %29.90 in10.0 miESE (120°)9.2 mphClear
10:58 AM84.6 °F76.5 °F77 %29.90 in10.0 miESE (120°)5.8 mphClear
11:58 AM86.0 °F76.6 °F73 %29.90 in10.0 miVariable4.6 mphScattered Clouds
12:58 PM86.0 °F75.9 °F72 %29.88 in10.0 miESE (120°)8.1 mphPartly Cloudy
1:58 PM84.9 °F75.2 °F73 %29.86 in10.0 miSE (130°)5.8 mphPartly Cloudy
2:58 PM84.6 °F74.7 °F72 %29.85 in10.0 miCalmClear
3:58 PM85.3 °F77.9 °F78 %29.85 in10.0 miNorth (10°)4.6 mphMostly Cloudy
4:58 PM85.6 °F76.8 °F75 %29.84 in10.0 miNNE (30°)6.9 mphClear
5:58 PM83.5 °F77.0 °F81 %29.86 in10.0 miNorth (10°)6.9 mphClear
6:58 PM81.0 °F75.2 °F83 %29.87 in10.0 miNE (40°)6.9 mphClear
7:58 PM81.3 °F73.6 °F77 %29.89 in10.0 miNE (40°)9.2 mphMostly Cloudy
8:58 PM81.3 °F75.2 °F82 %29.91 in10.0 miNNE (30°)8.1 mphMostly Cloudy
9:53 PM82.4 °F77.0 °F84 %29.92 in10.0 miNNE (20°)10.4 mphMostly Cloudy
9:58 PM81.7 °F77.2 °F86 %29.92 in10.0 miNorth (10°)10.4 mphMostly Cloudy
10:03 PM82.4 °F77.0 °F84 %29.92 in10.0 miNNE (20°)10.4 mphMostly Cloudy
10:28 PM82.4 °F77.0 °F84 %29.92 in10.0 miNNE (30°)8.1 mphMostly Cloudy
10:33 PM82.4 °F77.0 °F84 %29.92 in10.0 miNE (40°)9.2 mphMostly Cloudy
10:38 PM82.4 °F77.0 °F84 %29.92 in10.0 miNNE (30°)10.4 mphOvercast
10:43 PM82.4 °F77.0 °F84 %29.92 in10.0 miNNE (30°)10.4 mphOvercast
10:48 PM82.4 °F77.0 °F84 %29.92 in10.0 miNNE (30°)9.2 mphMostly Cloudy
10:58 PM81.7 °F77.5 °F87 %29.91 in10.0 miNE (40°)10.4 mphOvercast
10:59 PM82.4 °F77.0 °F84 %29.91 in10.0 miNNE (30°)11.5 mphRainLight Rain
11:09 PM80.6 °F78.8 °F94 %29.91 in10.0 miENE (60°)11.5 mphRainLight Rain
11:29 PM80.6 °F78.8 °F94 %29.91 in10.0 miNE (40°)13.8 mphRainLight Rain
11:37 PM78.8 °F77.0 °F94 %29.91 in10.0 miNE (40°)11.5 mphScattered Clouds
11:58 PM79.9 °F77.4 °F92 %29.90 in10.0 miNE (40°)9.2 mph0.02 inClear
Hourly data recorded from PGUA, located miles away from Merizo, Guam







STORIES FROM OUR PARTNERS